• en France
  • Liste des pays
  • À 7 jours
  • Température de l'eau
  • Carte satellitaire
  • Carte météo
  • Widgets météo
  • user-avatar
    Se connecter

    Météo par heure à Veselovo

    Ce jour, 20 Septembre, Jeudi

    Heure Température Précipitation Vent Pression Humidité
    00:00 +16°C° 0 mm 3 m/s 746 mmHg 94%
    01:00 +16°C° 0 mm 3 m/s 746 mmHg 95%
    02:00 +14°C° 0 mm 3 m/s 746 mmHg 96%
    03:00 +14°C° 0 mm 3 m/s 746 mmHg 96%
    04:00 +14°C° 0 mm 3 m/s 746 mmHg 96%
    05:00 +14°C° 0 mm 3 m/s 746 mmHg 97%
    06:00 +16°C° 0 mm 3 m/s 746 mmHg 93%
    07:00 +17°C° 0 mm 4 m/s 746 mmHg 89%
    08:00 +18°C° 0 mm 4 m/s 746 mmHg 86%
    09:00 +20°C° 0 mm 4 m/s 746 mmHg 79%
    10:00 +21°C° 0 mm 5 m/s 747 mmHg 72%
    11:00 +23°C° 0 mm 5 m/s 747 mmHg 65%
    12:00 +23°C° 0 mm 5 m/s 747 mmHg 62%
    13:00 +25°C° 0 mm 5 m/s 747 mmHg 58%
    14:00 +25°C° 0 mm 5 m/s 747 mmHg 55%
    15:00 +23°C° 0 mm 4 m/s 747 mmHg 60%
    16:00 +21°C° 0 mm 3 m/s 747 mmHg 66%
    17:00 +20°C° 0 mm 2 m/s 747 mmHg 71%
    18:00 +19°C° 0 mm 2 m/s 747 mmHg 76%
    19:00 +17°C° 0 mm 2 m/s 748 mmHg 81%
    20:00 +16°C° 0 mm 2 m/s 748 mmHg 85%
    21:00 +16°C° 0 mm 2 m/s 748 mmHg 87%
    22:00 +15°C° 0 mm 2 m/s 748 mmHg 89%
    23:00 +15°C° 0 mm 1 m/s 749 mmHg 90%

    Demain, 21 Septembre, Vendredi

    Heure Température Précipitation Vent Pression Humidité
    00:00 +14°C° 0 mm 1 m/s 749 mmHg 91%
    01:00 +14°C° 0 mm 1 m/s 749 mmHg 92%
    02:00 +14°C° 0 mm 1 m/s 749 mmHg 92%
    03:00 +14°C° 0 mm 1 m/s 749 mmHg 93%
    04:00 +13°C° 0 mm 1 m/s 750 mmHg 93%
    05:00 +13°C° 0 mm 1 m/s 750 mmHg 93%
    06:00 +15°C° 0 mm 1 m/s 750 mmHg 88%
    07:00 +16°C° 0 mm 1 m/s 750 mmHg 82%
    08:00 +19°C° 0 mm 1 m/s 750 mmHg 76%
    09:00 +20°C° 0 mm 1 m/s 751 mmHg 70%
    10:00 +21°C° 0 mm 2 m/s 751 mmHg 64%
    11:00 +24°C° 0 mm 2 m/s 751 mmHg 58%
    12:00 +24°C° 0 mm 2 m/s 751 mmHg 56%
    13:00 +25°C° 0 mm 2 m/s 751 mmHg 54%
    14:00 +25°C° 0 mm 2 m/s 750 mmHg 52%
    15:00 +24°C° 0 mm 1 m/s 750 mmHg 57%
    16:00 +23°C° 0 mm 1 m/s 750 mmHg 63%
    17:00 +21°C° 0 mm 1 m/s 750 mmHg 68%
    18:00 +20°C° 0 mm 1 m/s 750 mmHg 71%
    19:00 +19°C° 0 mm 1 m/s 750 mmHg 75%
    20:00 +18°C° 0 mm 1 m/s 750 mmHg 78%
    21:00 +16°C° 0 mm 2 m/s 750 mmHg 80%
    22:00 +16°C° 0 mm 2 m/s 750 mmHg 81%
    23:00 +16°C° 0 mm 2 m/s 750 mmHg 83%

    Après-demain, 22 Septembre, Samedi

    Heure Température Précipitation Vent Pression Humidité
    00:00 +15°C° 0 mm 2 m/s 750 mmHg 84%
    01:00 +15°C° 0 mm 2 m/s 750 mmHg 86%
    02:00 +14°C° 0 mm 2 m/s 750 mmHg 87%
    03:00 +14°C° 0 mm 2 m/s 749 mmHg 88%
    04:00 +14°C° 0 mm 2 m/s 749 mmHg 89%
    05:00 +13°C° 0 mm 3 m/s 749 mmHg 90%
    06:00 +14°C° 0 mm 3 m/s 749 mmHg 84%
    07:00 +17°C° 0 mm 3 m/s 749 mmHg 78%
    08:00 +18°C° 0 mm 4 m/s 748 mmHg 71%
    09:00 +20°C° 0 mm 4 m/s 748 mmHg 66%
    10:00 +22°C° 0 mm 5 m/s 748 mmHg 61%
    11:00 +25°C° 0 mm 5 m/s 747 mmHg 56%
    12:00 +25°C° 0 mm 5 m/s 747 mmHg 55%
    13:00 +24°C° 0 mm 6 m/s 746 mmHg 54%
    14:00 +26°C° 0 mm 6 m/s 746 mmHg 52%
    15:00 +25°C° 0 mm 5 m/s 745 mmHg 57%
    16:00 +23°C° 0 mm 4 m/s 745 mmHg 62%
    17:00 +21°C° 0 mm 4 m/s 745 mmHg 67%
    18:00 +21°C° 0 mm 4 m/s 744 mmHg 69%
    19:00 +20°C° 0 mm 4 m/s 744 mmHg 70%
    20:00 +19°C° 0 mm 4 m/s 744 mmHg 72%
    21:00 +19°C° 0.1 mm 4 m/s 744 mmHg 74%
    22:00 +18°C° 0.1 mm 4 m/s 744 mmHg 76%
    23:00 +18°C° 0.1 mm 4 m/s 743 mmHg 77%

    23 Septembre, Dimanche

    Heure Température Précipitation Vent Pression Humidité
    00:00 +17°C° 0.2 mm 4 m/s 743 mmHg 81%
    01:00 +16°C° 0.2 mm 3 m/s 743 mmHg 84%
    02:00 +14°C° 0.2 mm 3 m/s 743 mmHg 88%
    03:00 +13°C° 0.3 mm 3 m/s 742 mmHg 89%
    04:00 +12°C° 0.3 mm 3 m/s 742 mmHg 90%
    05:00 +11°C° 0.3 mm 3 m/s 742 mmHg 91%
    06:00 +11°C° 1 mm 3 m/s 742 mmHg 91%
    07:00 +10°C° 1 mm 4 m/s 741 mmHg 91%
    08:00 +10°C° 1 mm 4 m/s 741 mmHg 91%
    09:00 +8°C° 2.1 mm 4 m/s 741 mmHg 92%
    10:00 +8°C° 2.1 mm 4 m/s 741 mmHg 92%
    11:00 +7°C° 2.1 mm 4 m/s 741 mmHg 92%
    12:00 +8°C° 1 mm 4 m/s 741 mmHg 91%
    13:00 +8°C° 1 mm 4 m/s 741 mmHg 90%
    14:00 +10°C° 1 mm 4 m/s 741 mmHg 88%
    15:00 +10°C° 0.1 mm 3 m/s 741 mmHg 88%
    16:00 +10°C° 0.1 mm 3 m/s 741 mmHg 88%
    17:00 +10°C° 0.1 mm 2 m/s 742 mmHg 87%
    18:00 +10°C° 0 mm 3 m/s 742 mmHg 88%
    19:00 +9°C° 0 mm 3 m/s 742 mmHg 90%
    20:00 +9°C° 0 mm 3 m/s 742 mmHg 91%
    21:00 +8°C° 0 mm 3 m/s 742 mmHg 91%
    22:00 +8°C° 0 mm 3 m/s 742 mmHg 92%
    23:00 +8°C° 0 mm 3 m/s 742 mmHg 92%

    24 Septembre, Lundi

    Heure Température Précipitation Vent Pression Humidité
    00:00 +8°C° 0 mm 3 m/s 742 mmHg 93%
    01:00 +7°C° 0 mm 3 m/s 742 mmHg 93%
    02:00 +7°C° 0 mm 3 m/s 742 mmHg 94%
    03:00 +7°C° 0 mm 3 m/s 742 mmHg 95%
    04:00 +5°C° 0 mm 3 m/s 743 mmHg 95%
    05:00 +5°C° 0 mm 3 m/s 743 mmHg 96%
    06:00 +7°C° 0 mm 3 m/s 743 mmHg 92%
    07:00 +7°C° 0 mm 4 m/s 743 mmHg 89%
    08:00 +8°C° 0 mm 4 m/s 743 mmHg 86%
    09:00 +10°C° 0 mm 4 m/s 743 mmHg 79%
    10:00 +12°C° 0 mm 4 m/s 743 mmHg 72%
    11:00 +13°C° 0 mm 4 m/s 743 mmHg 66%
    12:00 +13°C° 0 mm 4 m/s 743 mmHg 63%
    13:00 +14°C° 0 mm 4 m/s 742 mmHg 59%
    14:00 +14°C° 0 mm 4 m/s 742 mmHg 56%
    15:00 +13°C° 0 mm 4 m/s 741 mmHg 61%
    16:00 +12°C° 0 mm 4 m/s 741 mmHg 65%
    17:00 +12°C° 0 mm 4 m/s 740 mmHg 69%
    18:00 +11°C° 1.2 mm 4 m/s 739 mmHg 75%
    19:00 +9°C° 1.2 mm 5 m/s 739 mmHg 80%
    20:00 +9°C° 1.2 mm 5 m/s 739 mmHg 86%
    21:00 +9°C° 2.2 mm 6 m/s 737 mmHg 86%
    22:00 +9°C° 2.2 mm 7 m/s 736 mmHg 86%
    23:00 +9°C° 2.2 mm 7 m/s 735 mmHg 86%

    25 Septembre, Mardi

    Heure Température Précipitation Vent Pression Humidité
    00:00 +9°C° 2.3 mm 8 m/s 734 mmHg 86%
    01:00 +9°C° 2.3 mm 8 m/s 733 mmHg 86%
    02:00 +9°C° 2.3 mm 8 m/s 732 mmHg 85%
    03:00 +9°C° 1.5 mm 8 m/s 731 mmHg 87%
    04:00 +10°C° 1.5 mm 8 m/s 731 mmHg 88%
    05:00 +10°C° 1.5 mm 8 m/s 730 mmHg 89%
    06:00 +10°C° 0.2 mm 7 m/s 730 mmHg 87%
    07:00 +10°C° 0.2 mm 7 m/s 730 mmHg 85%
    08:00 +9°C° 0.2 mm 7 m/s 730 mmHg 83%
    09:00 +9°C° 0.1 mm 7 m/s 730 mmHg 82%
    10:00 +10°C° 0.1 mm 7 m/s 730 mmHg 80%
    11:00 +10°C° 0.1 mm 7 m/s 730 mmHg 79%
    12:00 +10°C° 0.1 mm 7 m/s 730 mmHg 79%
    13:00 +9°C° 0.1 mm 7 m/s 730 mmHg 80%
    14:00 +9°C° 0.1 mm 7 m/s 730 mmHg 81%
    15:00 +9°C° 0.1 mm 7 m/s 730 mmHg 82%
    16:00 +9°C° 0.1 mm 6 m/s 730 mmHg 83%
    17:00 +9°C° 0.1 mm 6 m/s 731 mmHg 84%
    18:00 +8°C° 0 mm 6 m/s 731 mmHg 84%
    19:00 +8°C° 0 mm 6 m/s 732 mmHg 83%
    20:00 +8°C° 0 mm 6 m/s 732 mmHg 83%
    21:00 +7°C° 0.1 mm 6 m/s 733 mmHg 83%
    22:00 +6°C° 0.1 mm 7 m/s 733 mmHg 83%
    23:00 +6°C° 0.1 mm 7 m/s 734 mmHg 83%
    Voir plus